Location: Aurora Center
(43.5271°N, 98.5894°W)
Time: 02:37:34
(UTC-05:00)

Envisat - Visible Passes

Search period start: 20 May 2026 00:00
Search period end: 30 May 2026 00:00
Orbit: 761 x 762 km, 98.4° (Epoch: 19 May)

Date Brightness Start Highest point End Pass type
(mag) Time Alt. Az. Time Alt. Az. Time Alt. Az.
20 May 3.2 04:05:16 10° NNE 04:10:20 69° ESE 04:13:53 20° S visible
21 May 4.4 03:27:53 10° NE 03:32:21 31° E 03:35:40 16° SSE visible
21 May 3.9 05:06:44 10° N 05:11:15 34° WNW 05:15:46 10° SW visible
22 May 5.4 02:51:37 10° ENE 02:54:10 14° E 02:56:42 10° ESE visible
22 May 3.0 04:28:34 10° N 04:33:38 74° WNW 04:37:34 17° SSW visible
23 May 3.6 03:50:51 10° NNE 03:55:47 50° E 03:59:20 18° S visible
24 May 4.9 03:13:45 10° NE 03:17:43 23° E 03:21:07 12° SE visible
24 May 3.5 04:52:01 10° N 04:56:50 45° WNW 05:01:14 12° SW visible
25 May 3.0 04:14:01 10° NNE 04:19:07 83° ESE 04:23:00 17° SSW visible
26 May 4.1 03:36:30 10° NNE 03:41:12 37° E 03:44:46 16° SSE visible
26 May 4.1 05:15:41 10° N 05:19:58 28° WNW 05:24:15 10° WSW visible
27 May 5.2 02:59:49 10° NE 03:03:03 17° E 03:06:16 10° SE visible
27 May 3.1 04:37:23 10° N 04:42:23 61° WNW 04:46:40 14° SSW visible
28 May 3.3 03:59:33 10° NNE 04:04:35 61° ESE 04:08:25 17° S visible
29 May 4.6 03:22:16 10° NE 03:26:35 27° E 03:30:11 13° SSE visible
29 May 3.7 05:00:55 10° N 05:05:33 37° WNW 05:10:11 10° SW visible
